Volver al catálogo

STARLINK-34089

ActivoComunicacionesVLEO
NORAD 64039·PAYLOAD·🇺🇸 United States

Lanzado May 16, 2025 desde Vandenberg Space Force Base

Loading…

Próximos Pases (próximas 24 horas)

TLE

ActualizadoSource: CelesTrak SupGP

Época: Sep 15, 2026, 03:37 UTC

1 64039C 25102T   26258.15118056  .00087624  00000+0  30514-2 0  2581
2 64039  70.0010 354.9436 0003499 271.0443 211.2442 15.29499470    19

Sigue STARLINK-34089 en tiempo real con AllMySat

Download on the App Store